SCP
0 0 0 0 0 0 0 0 0 0 0 0 0 0 0 0 0 0 0 0 0 0
0 0 0 0 0 0 0 0 0 0 0 0 0 0 0 0 0 0 0 0 0 0
0 0 0 0 0 0 0 0 0 0 0 0 0 0 0 0 0 0 0 0 0 0
0 0 0 0 0 0 0 0 0 0 0 0 0 0 0 0 0 0 0 0 0 0
0 0 0 0 0 0 0 0 0 0 0 0 0 0 0 0 0 0 0 0 0 0
0 0 0 0 0 0 0 0 0 0 0 0 0 0 0 0 0 0 0 0 0 0
0 0 0 0 0 0 0 0 0 0 0 0 0 0 0 0 0 0 0 0 0 0
0 0 0 0 0 0 0 0 0 0 0 0 0 0 0 0 0 0 0 0 0 0
0 0 0 0 0 0 0 0 0 0 0 0 0 0 0 0 0 0 0 0 0 0
0 0 0 0 0 0 0 0 0 0 0 0 0 0 0 0 0 0 0 0 0 0
0 0 0 0 0 0 0 0 0 0 0 0 0 0 0 0 0 0 0 0 0 0
0 0 0 0 0 0 0 0 0 0 0 0 0 0 0 0 0 0 0 0 0 0
0 0 0 0 0 0 0 0 0 0 0 0 0 0 0 0 0 0 0 0 0 0
0 0 0 0 0 0 0 0 0 0 0 0 0 0 0 0 0 0 0 0 0 0
Wind_Speed_500mb
28 25 23 21 18 15 12 8 4 1 3 5 7 9 10 12 12 13 15 15 16 18
34 32 28 25 24 20 16 12 9 6 5 6 9 11 12 14 14 14 15 16 17 18
36 33 32 32 28 24 21 17 13 11 10 10 12 13 14 16 18 19 20 20 20 21
42 41 40 37 34 32 29 25 22 20 17 15 17 19 19 20 21 21 24 26 28 27
43 44 44 42 39 38 34 31 28 26 24 22 22 24 25 26 28 28 28 28 32 34
43 46 44 43 42 41 38 36 33 31 30 29 30 31 31 31 33 35 37 37 38 39
38 39 39 39 41 41 40 39 38 37 36 37 39 40 40 42 41 43 43 44 46 47
33 33 36 38 38 40 41 42 42 42 43 43 45 48 50 50 50 50 51 51 52 54
40 36 36 38 38 39 40 42 43 44 45 46 48 50 51 53 55 56 57 57 58 60
44 39 35 35 36 37 38 40 42 43 44 46 47 49 51 54 57 58 58 60 63 65
40 37 35 35 34 34 35 36 38 40 41 43 46 48 51 53 56 57 57 59 60 63
34 31 30 28 26 27 28 30 32 35 38 40 43 45 47 49 53 56 58 60 60 63
27 24 23 22 21 22 24 26 28 31 34 38 40 41 45 49 54 59 62 62 63 64
21 19 17 16 15 16 19 22 25 29 33 37 42 43 46 49 54 56 60 64 68 68
Wind_Direction_500mb
215 214 215 216 217 213 211 210 208 251 16 10 3 6 9 8 7 1 358 359 358 355
216 217 219 219 219 218 219 224 235 256 286 320 327 332 341 345 342 343 341 344 345 342
220 222 223 223 222 223 224 230 240 257 274 285 293 301 310 317 321 327 326 329 329 328
219 222 224 225 224 225 228 231 235 243 255 269 282 292 295 298 298 307 311 318 317 317
223 224 228 229 229 230 233 236 241 247 253 263 272 277 282 285 290 295 294 295 299 305
225 228 230 234 236 238 239 242 246 251 255 260 264 271 278 281 281 284 288 290 291 295
228 232 234 237 241 245 247 250 252 255 258 261 265 270 274 277 280 283 285 286 288 290
228 229 230 232 235 241 245 250 254 257 261 264 268 272 275 279 283 285 284 284 286 289
224 228 229 230 231 236 243 249 254 260 265 269 272 274 278 282 283 284 285 287 287 287
221 227 231 234 235 239 246 252 258 262 266 270 272 275 279 283 285 288 289 290 290 289
218 225 229 232 235 239 244 249 255 260 265 270 275 278 281 284 285 287 289 290 290 292
209 216 221 227 233 241 248 255 260 266 272 276 280 283 286 288 288 290 291 293 297 298
201 210 221 232 240 250 258 266 273 279 283 285 287 291 293 293 294 295 298 299 298 299
200 212 223 236 248 263 272 279 284 288 291 294 296 298 300 300 300 303 303 301 301 301
Wind_Speed_850mb
28 25 23 21 18 15 12 8 4 1 3 5 7 9 10 12 12 13 15 15 16 18
34 32 28 25 24 20 16 12 9 6 5 6 9 11 12 14 14 14 15 16 17 18
36 33 32 32 28 24 21 17 13 11 10 10 12 13 14 16 18 19 20 20 20 21
42 41 40 37 34 32 29 25 22 20 17 15 17 19 19 20 21 21 24 26 28 27
43 44 44 42 39 38 34 31 28 26 24 22 22 24 25 26 28 28 28 28 32 34
43 46 44 43 42 41 38 36 33 31 30 29 30 31 31 31 33 35 37 37 38 39
38 39 39 39 41 41 40 39 38 37 36 37 39 40 40 42 41 43 43 44 46 47
33 33 36 38 38 40 41 42 42 42 43 43 45 48 50 50 50 50 51 51 52 54
40 36 36 38 38 39 40 42 43 44 45 46 48 50 51 53 55 56 57 57 58 60
44 39 35 35 36 37 38 40 42 43 44 46 47 49 51 54 57 58 58 60 63 65
40 37 35 35 34 34 35 36 38 40 41 43 46 48 51 53 56 57 57 59 60 63
34 31 30 28 26 27 28 30 32 35 38 40 43 45 47 49 53 56 58 60 60 63
27 24 23 22 21 22 24 26 28 31 34 38 40 41 45 49 54 59 62 62 63 64
21 19 17 16 15 16 19 22 25 29 33 37 42 43 46 49 54 56 60 64 68 68
Wind_Direction_850mb
215 214 215 216 217 213 211 210 208 251 16 10 3 6 9 8 7 1 358 359 358 355
216 217 219 219 219 218 219 224 235 256 286 320 327 332 341 345 342 343 341 344 345 342
220 222 223 223 222 223 224 230 240 257 274 285 293 301 310 317 321 327 326 329 329 328
219 222 224 225 224 225 228 231 235 243 255 269 282 292 295 298 298 307 311 318 317 317
223 224 228 229 229 230 233 236 241 247 253 263 272 277 282 285 290 295 294 295 299 305
225 228 230 234 236 238 239 242 246 251 255 260 264 271 278 281 281 284 288 290 291 295
228 232 234 237 241 245 247 250 252 255 258 261 265 270 274 277 280 283 285 286 288 290
228 229 230 232 235 241 245 250 254 257 261 264 268 272 275 279 283 285 284 284 286 289
224 228 229 230 231 236 243 249 254 260 265 269 272 274 278 282 283 284 285 287 287 287
221 227 231 234 235 239 246 252 258 262 266 270 272 275 279 283 285 288 289 290 290 289
218 225 229 232 235 239 244 249 255 260 265 270 275 278 281 284 285 287 289 290 290 292
209 216 221 227 233 241 248 255 260 266 272 276 280 283 286 288 288 290 291 293 297 298
201 210 221 232 240 250 258 266 273 279 283 285 287 291 293 293 294 295 298 299 298 299
200 212 223 236 248 263 272 279 284 288 291 294 296 298 300 300 300 303 303 301 301 301